Wind_Speed
30 28 26 25 23 22 21 20 18 18 17 16 14 13 11 10 9 8 8 8 8 7 6 6 5 6 7 8 10 12 14 15 16 17 18 19 20 20 19 19 20 21
31 29 28 27 26 25 23 21 20 19 18 17 15 14 12 11 10 10 9 9 9 9 8 8 7 7 8 9 10 12 13 15 16 17 18 19 20 20 19 19 19 21
32 31 29 29 28 26 24 23 21 20 19 18 16 15 14 13 12 11 11 11 11 10 10 9 9 9 10 10 11 12 13 15 16 18 19 20 20 20 20 19 19 20
32 31 30 30 29 28 26 25 24 23 21 19 18 17 15 14 13 13 12 12 12 12 11 10 10 11 11 12 13 13 15 16 17 19 20 20 21 21 20 19 19 20
31 31 31 30 30 30 29 27 26 25 23 22 20 18 17 16 15 14 14 13 13 13 12 12 12 12 13 13 14 15 16 18 19 20 20 21 21 21 20 20 20 20
31 31 31 31 32 32 31 29 27 26 25 24 22 21 19 18 17 16 16 15 14 14 13 13 13 13 14 14 14 15 17 19 20 21 21 21 21 21 21 20 20 21
32 31 31 32 33 33 32 30 29 28 27 26 24 23 21 19 19 18 18 17 16 15 15 14 14 14 15 15 15 16 18 19 21 22 22 22 22 21 21 21 21 22
31 31 31 31 32 33 32 32 31 30 29 27 26 24 23 21 21 20 20 19 17 16 16 16 15 15 15 16 16 17 19 20 21 22 23 23 22 22 22 22 22 23
31 31 31 31 31 32 33 32 32 31 30 29 28 26 25 24 22 22 21 20 19 18 17 17 16 16 17 17 17 18 20 21 22 23 24 23 23 22 22 22 23 24
33 33 32 31 31 32 33 33 32 32 32 30 29 28 27 25 24 23 22 21 20 19 19 18 17 17 18 18 18 19 21 22 23 24 24 24 23 23 23 23 24 25
35 36 35 32 31 31 33 33 33 33 32 31 31 29 28 27 25 24 23 22 22 21 20 19 19 19 18 19 19 21 22 23 24 24 24 23 23 24 24 24 24 25
36 37 36 34 31 31 33 34 34 34 33 32 31 30 29 28 26 25 24 24 23 22 21 20 20 20 19 20 20 21 23 24 25 24 24 24 24 24 24 25 25 25
37 38 37 34 32 32 33 34 35 34 33 32 31 30 30 29 28 26 26 25 24 23 22 22 21 21 21 21 21 22 24 24 25 24 24 24 25 25 25 25 25 26
37 37 36 35 34 34 35 36 36 35 34 33 32 32 31 30 28 28 27 26 25 23 23 23 22 22 22 22 23 24 24 24 24 24 25 25 26 26 26 26 26 26
37 37 37 36 36 37 38 38 37 36 34 34 33 32 31 30 29 29 28 27 25 25 25 24 23 23 23 23 24 25 25 24 23 24 25 26 26 26 27 27 26 26
37 37 38 38 39 39 39 39 38 37 36 35 33 32 32 31 31 30 29 27 26 26 26 25 24 24 24 25 25 25 24 23 23 24 25 26 26 27 27 27 26 27
38 38 39 40 40 40 40 40 40 39 37 36 35 34 33 32 32 32 30 28 28 27 27 26 25 25 26 26 26 26 24 24 24 25 25 26 26 27 27 26 26 27
39 39 40 41 41 41 41 41 41 41 39 38 37 36 34 34 34 33 32 30 30 29 28 27 26 27 27 27 26 26 25 25 26 25 26 27 27 27 27 26 26 27
40 40 41 41 41 42 42 42 43 43 42 41 39 38 37 37 36 35 34 32 31 30 29 28 28 28 28 28 27 27 27 27 27 26 27 27 27 28 27 26 27 28
39 41 42 42 42 42 43 44 44 44 44 42 41 40 40 39 38 37 35 34 32 32 31 30 29 29 29 30 29 29 29 28 28 27 27 28 28 28 27 26 28 29
38 39 41 42 43 43 44 45 46 45 45 44 43 43 42 41 40 38 37 36 34 34 33 32 31 31 31 32 31 31 30 30 29 29 29 29 29 28 27 27 29 30
37 38 39 40 42 43 44 45 46 46 46 45 44 44 44 43 42 40 39 38 37 37 36 35 33 33 33 33 33 32 32 31 31 30 30 30 29 29 28 29 30 31
37 36 36 37 39 41 42 43 44 44 45 45 45 45 45 45 44 42 41 40 40 40 39 37 35 35 35 34 34 33 33 33 33 31 31 31 30 29 29 30 31 33
37 36 35 35 36 38 39 39 40 41 42 43 45 45 46 45 44 43 43 42 42 42 40 38 37 37 36 35 34 35 34 34 34 32 32 31 30 30 30 31 32 34
37 36 35 34 34 34 35 36 37 38 39 40 42 44 45 45 44 44 44 43 43 42 40 38 37 37 36 35 36 36 36 36 35 33 33 32 31 31 32 32 33 35
37 37 35 34 33 32 32 33 34 35 36 38 40 41 42 43 44 44 44 44 43 41 40 39 38 38 37 36 37 38 38 36 35 34 33 32 32 33 33 33 35 36
Wind_Direction
212 211 208 209 210 211 212 213 213 213 213 212 212 215 221 229 238 246 251 254 258 267 276 286 297 311 323 333 342 348 351 351 351 351 351 353 354 354 354 356 358 0
216 214 211 212 213 215 216 216 216 218 219 220 220 222 226 231 239 247 255 259 263 267 274 282 289 296 307 317 327 336 341 342 342 343 343 345 347 348 349 350 352 354
218 217 214 214 216 217 219 219 219 221 223 225 226 228 231 234 239 247 255 261 265 268 273 278 285 291 297 306 315 324 330 333 334 336 337 338 340 342 343 344 346 348
221 220 217 216 217 218 219 219 219 221 224 226 229 231 234 237 242 246 253 260 266 270 274 278 283 289 294 300 307 315 322 326 329 331 332 333 334 337 337 338 340 342
223 222 219 216 216 218 219 219 220 222 224 227 229 232 236 239 244 248 252 258 264 269 273 276 280 285 290 296 303 312 318 322 324 327 328 329 331 332 333 333 335 337
224 224 221 218 218 219 220 220 221 223 225 227 229 232 235 239 244 248 252 255 260 265 269 271 275 280 286 294 301 309 315 318 321 322 325 327 329 329 330 330 331 334
225 226 225 222 221 222 221 220 221 223 225 227 229 232 234 238 242 247 251 254 258 262 265 267 272 277 284 292 299 306 311 314 316 319 322 325 327 328 328 327 328 331
226 228 228 227 226 226 224 222 223 224 226 228 230 232 235 237 240 245 249 253 256 259 261 264 269 276 283 290 298 304 309 312 314 317 320 322 325 326 325 325 327 329
229 231 231 230 230 230 229 227 226 226 227 228 230 232 234 236 239 243 247 251 254 256 258 261 267 274 281 288 296 303 308 312 315 317 319 321 323 323 322 323 325 328
230 233 233 232 231 232 233 233 231 230 230 230 231 233 235 237 239 242 246 249 253 255 256 259 264 271 278 287 295 303 309 313 315 316 318 320 321 321 321 322 325 327
228 232 233 232 231 233 236 236 235 234 234 234 234 235 236 238 240 242 246 249 252 254 255 258 263 269 277 286 295 303 309 313 314 314 316 318 319 319 321 323 325 327
227 231 233 232 232 233 236 238 239 238 238 238 238 238 238 239 241 243 246 249 251 253 255 259 264 270 277 285 294 303 309 311 312 313 315 317 317 319 320 323 324 325
227 230 233 233 233 234 237 239 240 240 240 241 241 241 240 241 242 244 246 249 250 252 255 259 265 271 278 285 293 301 306 308 309 311 313 315 316 317 319 322 323 322
228 230 232 234 235 237 239 240 241 242 242 243 243 243 243 243 244 245 247 249 250 252 255 260 266 272 278 286 293 300 303 303 305 308 310 312 314 315 318 320 320 320
230 231 233 234 235 237 239 241 243 244 244 244 245 245 245 246 246 247 248 249 251 252 256 261 267 272 279 285 291 296 297 297 300 304 306 308 310 313 316 318 318 319
231 231 232 234 235 237 239 242 244 245 245 246 247 247 248 248 248 248 249 250 251 253 257 262 268 273 279 284 289 292 291 292 296 300 302 304 307 311 314 315 315 317
232 231 231 233 235 237 239 241 244 245 246 247 248 248 248 248 249 249 249 250 251 254 258 263 268 273 277 283 288 288 288 289 293 296 298 301 304 308 311 312 313 315
232 232 233 234 236 238 239 241 243 245 247 247 247 247 248 248 249 250 250 250 252 255 259 263 267 271 276 282 285 285 285 288 290 293 296 299 302 306 307 308 310 312
233 233 234 235 237 239 240 241 242 244 246 246 247 248 248 248 249 250 251 252 253 257 259 262 266 270 276 280 281 281 283 286 288 291 294 296 301 304 305 306 308 310
236 236 236 238 240 241 241 241 242 243 245 246 247 247 247 249 250 251 252 253 255 257 259 262 265 270 274 277 277 279 281 284 288 290 292 295 299 301 302 303 306 309
238 238 239 241 242 244 243 243 243 244 245 246 246 247 248 250 251 252 253 255 256 258 259 261 264 268 272 274 275 278 281 284 288 289 291 294 297 299 299 300 304 307
239 241 242 242 244 244 245 246 247 247 248 248 248 248 249 250 251 252 254 255 256 258 259 261 263 266 269 271 273 277 281 284 287 288 289 293 295 296 296 299 302 305
239 241 242 242 243 243 244 246 248 249 251 251 250 249 249 250 251 252 253 255 256 257 259 261 263 265 267 268 271 276 280 283 284 285 287 291 293 293 294 297 301 304
239 241 242 242 243 243 244 245 247 248 250 251 251 251 250 250 251 251 252 253 255 257 259 261 263 264 265 267 271 274 278 280 282 283 285 289 290 290 293 296 300 303
238 240 241 242 242 243 244 245 245 246 248 250 251 251 251 251 251 251 251 252 253 255 257 259 260 262 264 266 270 273 276 278 279 280 284 287 287 288 292 295 299 301
237 239 239 240 241 243 245 245 245 246 246 248 249 250 251 251 251 250 250 251 251 252 254 256 258 260 263 266 270 273 275 275 276 279 283 285 285 287 291 295 297 299
Height
10990 10992 10994 10996 10997 10998 10999 11001 11002 11003 11004 11005 11006 11006 11008 11009 11010 11011 11011 11011 11012 11012 11012 11012 11012 11012 11012 11011 11011 11011 11010 11010 11009 11009 11008 11007 11006 11005 11004 11003 11002 11001
10989 10991 10993 10994 10996 10997 10998 11000 11001 11002 11003 11004 11005 11006 11006 11008 11009 11010 11010 11011 11011 11012 11012 11012 11012 11012 11012 11011 11011 11011 11011 11010 11010 11009 11008 11007 11006 11005 11004 11003 11002 11001
10987 10989 10991 10993 10994 10996 10997 10999 11000 11001 11002 11003 11004 11005 11006 11006 11007 11008 11009 11010 11011 11011 11012 11012 11012 11011 11011 11011 11011 11011 11011 11010 11010 11009 11008 11007 11006 11005 11004 11003 11002 11000
10985 10988 10990 10991 10993 10994 10995 10997 10998 10999 11000 11002 11003 11004 11004 11005 11006 11007 11007 11008 11009 11010 11011 11011 11011 11011 11011 11011 11011 11010 11010 11010 11009 11009 11008 11007 11005 11004 11003 11002 11001 10999
10984 10986 10988 10990 10991 10992 10993 10994 10996 10997 10998 11000 11001 11002 11003 11004 11005 11005 11006 11007 11007 11009 11009 11010 11010 11010 11010 11010 11010 11010 11009 11009 11008 11008 11007 11006 11005 11003 11002 11001 11000 10998
10982 10984 10986 10988 10989 10989 10991 10992 10994 10995 10996 10997 10999 11000 11001 11002 11003 11003 11004 11005 11006 11007 11008 11008 11009 11009 11009 11009 11009 11009 11009 11008 11007 11006 11006 11005 11003 11002 11001 11000 10998 10997
10980 10982 10984 10986 10987 10987 10989 10990 10991 10992 10993 10995 10996 10998 10999 11000 11001 11002 11002 11003 11004 11004 11005 11006 11007 11008 11008 11008 11008 11008 11008 11007 11006 11005 11004 11003 11002 11001 11000 10998 10997 10995
10978 10980 10982 10984 10985 10986 10987 10988 10989 10990 10991 10993 10994 10996 10997 10998 10999 11000 11000 11001 11002 11002 11003 11004 11005 11006 11006 11007 11007 11007 11007 11006 11005 11004 11003 11002 11001 11000 10998 10997 10995 10994
10977 10978 10980 10982 10984 10985 10985 10986 10987 10988 10989 10990 10991 10993 10994 10996 10997 10998 10999 10999 11000 11001 11001 11002 11003 11003 11004 11005 11005 11005 11005 11004 11003 11002 11001 11000 10999 10998 10997 10995 10994 10992
10974 10975 10977 10980 10982 10983 10983 10984 10985 10985 10986 10988 10989 10990 10992 10993 10995 10996 10997 10998 10998 10999 11000 11000 11001 11002 11002 11003 11003 11003 11003 11002 11001 11001 11000 10999 10997 10996 10995 10994 10992 10990
10970 10971 10973 10976 10979 10980 10981 10982 10983 10984 10985 10986 10987 10988 10990 10991 10992 10994 10995 10996 10997 10997 10998 10999 11000 11000 11000 11001 11001 11001 11000 11000 10999 10998 10998 10997 10995 10994 10993 10992 10991 10989
10966 10967 10969 10973 10976 10978 10978 10979 10980 10981 10983 10984 10985 10986 10988 10989 10990 10991 10992 10994 10995 10995 10996 10997 10997 10998 10998 10999 10999 10998 10998 10997 10997 10996 10995 10994 10993 10993 10991 10990 10989 10987
10963 10964 10966 10969 10973 10975 10975 10976 10977 10979 10980 10982 10983 10984 10985 10986 10987 10989 10990 10991 10992 10993 10994 10995 10995 10996 10996 10996 10996 10996 10996 10995 10994 10993 10993 10992 10991 10990 10990 10989 10987 10985
10960 10961 10963 10966 10969 10971 10972 10973 10974 10976 10978 10979 10980 10982 10983 10984 10985 10986 10987 10988 10990 10991 10992 10992 10993 10994 10994 10994 10994 10994 10993 10993 10992 10991 10990 10989 10988 10988 10987 10987 10985 10984
10957 10959 10961 10963 10965 10967 10968 10969 10971 10973 10975 10976 10978 10979 10980 10982 10983 10983 10984 10986 10987 10988 10989 10990 10991 10991 10992 10992 10992 10992 10991 10991 10990 10989 10988 10987 10986 10986 10985 10984 10983 10982
10955 10956 10958 10959 10961 10962 10964 10966 10968 10970 10971 10973 10975 10977 10978 10979 10980 10980 10981 10983 10984 10985 10986 10987 10988 10989 10989 10989 10990 10989 10989 10988 10988 10987 10986 10985 10984 10984 10983 10982 10981 10979
10952 10953 10954 10955 10956 10958 10960 10962 10964 10966 10968 10970 10972 10973 10975 10976 10976 10977 10979 10980 10981 10982 10983 10984 10985 10986 10986 10986 10986 10986 10985 10985 10985 10984 10983 10982 10982 10981 10981 10980 10979 10977
10947 10949 10950 10951 10953 10955 10957 10958 10960 10962 10964 10966 10968 10969 10971 10972 10973 10974 10976 10977 10978 10979 10980 10981 10982 10982 10983 10983 10983 10982 10982 10981 10981 10981 10980 10980 10979 10979 10978 10978 10976 10975
10943 10945 10946 10948 10949 10951 10953 10954 10956 10957 10959 10961 10963 10966 10967 10968 10969 10971 10973 10974 10975 10976 10977 10978 10979 10979 10979 10979 10979 10978 10978 10978 10977 10977 10977 10977 10977 10976 10975 10975 10974 10972
10939 10940 10942 10944 10946 10948 10949 10950 10951 10952 10954 10957 10959 10961 10962 10964 10966 10968 10969 10970 10972 10972 10973 10974 10975 10975 10975 10975 10975 10974 10974 10974 10974 10974 10974 10973 10973 10973 10973 10972 10971 10970
10934 10936 10938 10941 10942 10944 10945 10946 10947 10949 10950 10952 10954 10956 10958 10960 10962 10964 10965 10967 10968 10969 10969 10970 10971 10971 10970 10970 10970 10970 10969 10970 10970 10970 10970 10970 10970 10970 10970 10969 10968 10967
10930 10932 10934 10937 10938 10940 10941 10942 10943 10945 10946 10948 10950 10951 10953 10955 10957 10959 10961 10963 10964 10964 10964 10965 10966 10966 10966 10966 10966 10965 10965 10966 10966 10966 10966 10966 10966 10966 10966 10965 10964 10963
10926 10928 10930 10932 10934 10935 10936 10937 10939 10941 10943 10945 10946 10947 10948 10950 10952 10955 10957 10958 10959 10959 10959 10961 10962 10962 10961 10962 10962 10961 10961 10962 10962 10962 10962 10962 10963 10963 10962 10962 10961 10959
10923 10925 10927 10928 10929 10930 10932 10933 10935 10937 10939 10940 10941 10942 10943 10945 10948 10950 10952 10953 10954 10954 10955 10957 10957 10957 10957 10957 10957 10957 10958 10958 10958 10958 10958 10958 10959 10958 10958 10958 10957 10955
10919 10921 10923 10924 10925 10926 10928 10929 10931 10932 10934 10935 10936 10937 10939 10941 10943 10945 10946 10948 10949 10950 10951 10952 10952 10952 10952 10953 10953 10953 10953 10954 10954 10954 10954 10955 10955 10954 10954 10954 10953 10951
10915 10917 10919 10920 10921 10923 10924 10925 10926 10928 10929 10930 10931 10932 10934 10936 10938 10940 10941 10943 10945 10946 10947 10947 10947 10947 10948 10949 10948 10948 10949 10949 10950 10950 10951 10951 10950 10949 10949 10949 10948 10947